Portsmouth, NH

8:57 AM EDT on July 23, 2017 (GMT -0400)
Pease International Tradeport

Weather History for KPSM - October, 2013

Change the Weather History Date:

Saturday, October 19, 2013

  Actual Average Record
Temperature  
Mean Temperature 52 °F -  
Max Temperature 66 °F 56 °F 78 °F (2016)
Min Temperature 39 °F 39 °F 22 °F (1974)
Degree Days  
Heating Degree Days 12    
Growing Degree Days 2 (Base 50)    
Moisture  
Dew Point 41 °F    
Average Humidity 62    
Maximum Humidity 86    
Minimum Humidity 38    
Precipitation  
Precipitation 0.00 in - - ()
Sea Level Pressure  
Sea Level Pressure 29.88 in    
Wind  
Wind Speed 6 mph (SSW)    
Max Wind Speed 13 mph    
Max Gust Speed -    
Visibility 10 miles    
Events      
Averages and records for this station are not official NWS values.
T = Trace of Precipitation, MM = Missing Value Source: NWS Daily Summary

Daily Weather History Graph

Daily Weather History Graph

Search for Another Location

Airport or City:

Trip Planner

Search our weather history database for the weather conditions in past years. The results will help you decide how hot, cold, wet, or windy it might be!

Date:

Astronomy

Oct. 19, 2013 Rise Set
Actual Time 7:01 AM EDT 5:53 PM EDT
Civil Twilight 6:33 AM EDT 6:22 PM EDT
Nautical Twilight 6:00 AM EDT 6:55 PM EDT
Astronomical Twilight 5:27 AM EDT 7:28 PM EDT
Moon 6:17 PM EDT (10/19) 7:37 AM EDT (10/19)
Length of Visible Light 11h 49m
Length of Day
10h 51m
Waxing Gibbous, 99% of the Moon is Illuminated
Oct 19
Waxing Gibbous
Oct 26
Last Quarter
Nov 3
New
Nov 10
First Quarter
Nov 17
Full

Hourly Weather History & Observations

Time (EDT) Temp. Windchill Dew Point Humidity Pressure Visibility Wind Dir Wind Speed Gust Speed Precip Events Conditions
12:58 AM 50.0 °F - 36.0 °F 59% 29.90 in 10.0 mi West 5.8 mph - N/A   Clear
1:58 AM 48.7 °F - 36.1 °F 62% 29.91 in 10.0 mi West 5.8 mph - N/A   Clear
2:58 AM 48.4 °F - 36.5 °F 64% 29.91 in 10.0 mi SW 5.8 mph - N/A   Clear
3:58 AM 46.4 °F - 36.0 °F 67% 29.92 in 10.0 mi West 2.3 mph - N/A   Clear
4:58 AM 45.0 °F 41.8 °F 36.9 °F 73% 29.92 in 10.0 mi West 5.8 mph - N/A   Clear
5:58 AM 39.9 °F 37.8 °F 36.1 °F 86% 29.94 in 10.0 mi SE 3.5 mph - N/A   Clear
6:58 AM 41.4 °F 39.4 °F 35.6 °F 80% 29.96 in 10.0 mi SSW 3.5 mph - N/A   Clear
7:58 AM 43.3 °F 40.7 °F 38.3 °F 82% 29.95 in 10.0 mi West 4.6 mph - N/A   Clear
8:58 AM 50.2 °F - 39.7 °F 67% 29.96 in 10.0 mi WSW 6.9 mph - N/A   Partly Cloudy
9:58 AM 54.3 °F - 40.5 °F 59% 29.96 in 10.0 mi SW 5.8 mph - N/A   Clear
10:58 AM 59.9 °F - 42.1 °F 52% 29.95 in 10.0 mi SW 4.6 mph - N/A   Clear
11:58 AM 63.5 °F - 40.8 °F 43% 29.94 in 10.0 mi SSW 8.1 mph - N/A   Clear
12:58 PM 65.1 °F - 41.5 °F 42% 29.91 in 10.0 mi SW 9.2 mph - N/A   Clear
1:58 PM 66.4 °F - 40.1 °F 38% 29.88 in 10.0 mi South 5.8 mph - N/A   Clear
2:58 PM 63.7 °F - 44.4 °F 50% 29.87 in 10.0 mi SSE 11.5 mph - N/A   Clear
3:58 PM 61.5 °F - 45.0 °F 55% 29.85 in 10.0 mi SSE 12.7 mph - N/A   Clear
4:58 PM 59.4 °F - 46.2 °F 62% 29.85 in 10.0 mi SSE 8.1 mph - N/A   Clear
5:58 PM 58.3 °F - 46.9 °F 66% 29.83 in 10.0 mi SSE 8.1 mph - N/A   Mostly Cloudy
6:58 PM 58.8 °F - 42.8 °F 55% 29.82 in 10.0 mi South 8.1 mph - N/A   Partly Cloudy
7:58 PM 58.3 °F - 42.6 °F 56% 29.81 in 10.0 mi South 5.8 mph - N/A   Partly Cloudy
8:58 PM 57.4 °F - 43.3 °F 59% 29.79 in 10.0 mi South 5.8 mph - N/A   Clear
9:58 PM 57.4 °F - 45.3 °F 64% 29.78 in 10.0 mi South 9.2 mph - N/A   Overcast
10:58 PM 57.0 °F - 46.9 °F 69% 29.77 in 10.0 mi South 8.1 mph - N/A   Overcast
11:58 PM 56.5 °F - 45.5 °F 67% 29.76 in 10.0 mi South 6.9 mph - N/A   Overcast